LB9CG Weather Reports


Display with metric or nautical units.
time (UTC)temp
F
wind
direction
speed
MPH
gust
MPH
rain 1hr
in
rain 24hr
in
rain mn
in
humidity
%
barometer
mb
20260509151016 44 293 1.0 4.0 0.00 0.00 0.00 91 1013.8
20260509150016 45 293 1.0 2.0 0.00 0.00 0.00 91 1013.8
20260509145016 45 270 1.0 3.0 0.00 0.00 0.00 91 1013.8
20260509144016 45 293 1.0 3.0 0.00 0.00 0.00 90 1013.8
20260509143016 45 293 3.0 7.0 0.00 0.00 0.00 89 1013.8
20260509142016 46 270 2.0 6.0 0.00 0.00 0.00 88 1013.8
20260509141016 46 293 3.0 8.0 0.00 0.00 0.00 87 1013.8
20260509140016 47 293 3.0 8.0 0.00 0.00 0.00 85 1013.8
20260509135036 47 293 3.0 9.0 0.00 0.00 0.00 84 1013.7
20260509134016 48 293 1.0 5.0 0.00 0.00 0.00 85 1013.5
20260509133037 48 293 2.0 5.0 0.00 0.00 0.00 82 1013.4
20260509132016 49 293 4.0 7.0 0.00 0.00 0.00 78 1013.4
20260509131016 50 293 4.0 9.0 0.00 0.00 0.00 76 1013.3
20260509130016 52 293 2.0 5.0 0.00 0.00 0.00 72 1013.2
20260509125016 53 158 3.0 8.0 0.00 0.00 0.00 61 1013.3
20260509124016 53 158 3.0 7.0 0.00 0.00 0.00 61 1013.3
20260509123016 53 135 2.0 5.0 0.00 0.00 0.00 62 1013.3
20260509122016 53 135 2.0 6.0 0.00 0.00 0.00 63 1013.4
20260509121016 53 135 5.0 10.0 0.00 0.00 0.00 61 1013.4
20260509120016 54 135 3.0 6.0 0.00 0.00 0.00 61 1013.5
20260509115036 54 135 2.0 5.0 0.00 0.00 0.00 62 1013.6
20260509114016 53 135 3.0 5.0 0.00 0.00 0.00 61 1013.7
20260509113016 53 135 2.0 5.0 0.00 0.00 0.00 64 1013.8
20260509112016 53 135 2.0 3.0 0.00 0.00 0.00 69 1014.0
20260509111016 52 135 2.0 4.0 0.00 0.00 0.00 71 1014.2
20260509110016 53 0.0 1.0 0.00 0.00 0.00 69 1014.2
20260509105016 53 0.0 1.0 0.00 0.00 0.00 69 1014.3
20260509104016 53 0.0 1.0 0.00 0.00 0.00 69 1014.3
20260509103016 53 0.0 1.0 0.00 0.00 0.00 71 1014.4
20260509102016 52 293 2.0 4.0 0.00 0.00 0.00 69 1014.4
20260509101016 53 293 2.0 6.0 0.00 0.00 0.00 69 1014.5
20260509100016 52 293 3.0 6.0 0.00 0.00 0.00 69 1014.5
20260509095016 52 293 2.0 6.0 0.00 0.00 0.00 69 1014.5
20260509094016 53 293 3.0 6.0 0.00 0.00 0.00 68 1014.6
20260509093016 53 293 3.0 8.0 0.00 0.00 0.00 68 1014.6
20260509092018 52 293 4.0 6.0 0.00 0.00 0.00 70 1014.7
20260509091015 52 293 4.0 7.0 0.00 0.00 0.00 69 1014.7
20260509090016 53 293 2.0 8.0 0.00 0.00 0.00 68 1014.7
20260509085016 53 270 1.0 4.0 0.00 0.00 0.00 64 1014.7
20260509084015 52 135 1.0 3.0 0.00 0.00 0.00 63 1014.7
20260509083036 51 158 1.0 3.0 0.00 0.00 0.00 63 1014.8
20260509082016 51 135 1.0 5.0 0.00 0.00 0.00 64 1014.8
20260509081036 51 225 2.0 7.0 0.00 0.00 0.00 63 1014.8
20260509080036 52 158 1.0 5.0 0.00 0.00 0.00 66 1014.7
20260509075016 52 225 2.0 6.0 0.00 0.00 0.00 64 1014.6
20260509074036 52 135 2.0 4.0 0.00 0.00 0.00 64 1014.5
20260509073015 52 135 4.0 7.0 0.00 0.00 0.00 63 1014.4
20260509072015 52 135 3.0 5.0 0.00 0.00 0.00 63 1014.4
20260509071015 52 135 4.0 8.0 0.00 0.00 0.00 61 1014.4
20260509070015 52 135 4.0 6.0 0.00 0.00 0.00 61 1014.4
20260509065015 52 113 3.0 6.0 0.00 0.00 0.00 61 1014.3
20260509064015 52 135 2.0 6.0 0.00 0.00 0.00 61 1014.4
20260509063015 52 158 3.0 6.0 0.00 0.00 0.00 60 1014.4
20260509062015 52 135 3.0 6.0 0.00 0.00 0.00 61 1014.5
20260509061055 51 135 3.0 5.0 0.00 0.00 0.00 61 1014.5
20260509060016 51 135 3.0 6.0 0.00 0.00 0.00 61 1014.6
20260509055015 51 135 2.0 5.0 0.00 0.00 0.00 63 1014.6
20260509054015 51 135 4.0 7.0 0.00 0.00 0.00 62 1014.6
20260509053036 51 135 2.0 5.0 0.00 0.00 0.00 59 1014.6
20260509052015 51 135 2.0 5.0 0.00 0.00 0.00 59 1014.5
20260509051015 50 270 1.0 2.0 0.00 0.00 0.00 62 1014.5
20260509050015 49 315 1.0 4.0 0.00 0.00 0.00 61 1014.5
20260509045015 50 0.0 2.0 0.00 0.00 0.00 63 1014.6
20260509044015 49 68 1.0 4.0 0.00 0.00 0.00 63 1014.6
20260509043015 49 68 1.0 3.0 0.00 0.00 0.00 64 1014.7
20260509042015 49 90 2.0 8.0 0.00 0.00 0.00 67 1014.7
20260509041024 47 0.0 2.0 0.00 0.00 0.00 70 1014.8
20260509040017 47 338 1.0 4.0 0.00 0.00 0.00 71 1014.8
20260509035017 47 68 1.0 5.0 0.00 0.00 0.00 74 1014.7
20260509034037 45 68 2.0 6.0 0.00 0.00 0.00 77 1014.8
20260509033017 44 293 1.0 4.0 0.00 0.00 0.00 81 1015.1
20260509032017 44 0.0 1.0 0.00 0.00 0.00 82 1015.2
20260509031017 44 293 1.0 3.0 0.00 0.00 0.00 81 1015.4
20260509030017 44 0.0 0.0 0.00 0.00 0.00 81 1015.6
20260509025017 44 0.0 0.0 0.00 0.00 0.00 81 1015.8
20260509024017 44 0.0 0.0 0.00 0.00 0.00 80 1015.9
20260509023017 44 0.0 0.0 0.00 0.00 0.00 79 1015.8
20260509022017 44 0.0 1.0 0.00 0.00 0.00 79 1015.9
20260509021017 44 0.0 1.0 0.00 0.00 0.00 79 1016.0
20260509020037 45 0.0 0.0 0.00 0.00 0.00 75 1016.0
20260509015017 45 0.0 1.0 0.00 0.00 0.00 76 1016.0
20260509014037 45 0.0 1.0 0.00 0.00 0.00 77 1016.1
20260509013017 45 0.0 1.0 0.00 0.00 0.00 76 1016.1
20260509012018 46 203 1.0 3.0 0.00 0.00 0.00 75 1016.2
20260509011017 46 0.0 1.0 0.00 0.00 0.00 78 1016.3
20260509010017 44 23 2.0 7.0 0.00 0.00 0.00 81 1016.1
20260509005017 43 0.0 1.0 0.00 0.00 0.00 82 1015.9
20260509004017 42 0.0 1.0 0.00 0.00 0.00 86 1015.9
20260509003017 42 0.0 0.0 0.00 0.00 0.00 88 1015.9
20260509002017 42 0.0 0.0 0.00 0.00 0.00 87 1015.9
20260509001017 42 0.0 0.0 0.00 0.00 0.00 88 1015.8
20260509000017 42 0.0 0.0 0.00 0.00 0.00 87 1015.7
20260508235016 42 0.0 0.0 0.00 0.00 0.00 87 1015.7
20260508234057 42 0.0 0.0 0.00 0.00 0.00 88 1015.7
20260508233037 42 0.0 0.0 0.00 0.00 0.00 87 1015.6
20260508232017 42 0.0 0.0 0.00 0.00 0.00 86 1015.6
20260508231017 42 0.0 0.0 0.00 0.00 0.00 86 1015.6
20260508230017 42 0.0 0.0 0.00 0.00 0.00 86 1015.6
20260508225017 42 0.0 0.0 0.00 0.00 0.00 85 1015.6
20260508224037 42 0.0 0.0 0.00 0.00 0.00 84 1015.7
20260508223016 43 0.0 0.0 0.00 0.00 0.00 83 1015.8
20260508222016 43 0.0 1.0 0.00 0.00 0.00 84 1015.8
20260508221016 42 0.0 1.0 0.00 0.00 0.00 85 1015.9
20260508220016 42 0.0 0.0 0.00 0.00 0.00 84 1015.9
20260508215017 43 0.0 1.0 0.00 0.00 0.00 83 1015.8
20260508214017 43 0.0 0.0 0.00 0.00 0.00 82 1015.8
20260508213017 43 293 1.0 2.0 0.00 0.00 0.00 82 1015.7
20260508212017 43 0.0 0.0 0.00 0.00 0.00 81 1015.8
20260508211017 43 0.0 1.0 0.00 0.00 0.00 81 1015.7
20260508210017 43 0.0 0.0 0.00 0.00 0.00 81 1015.7
20260508205017 44 0.0 0.0 0.00 0.00 0.00 81 1015.6
20260508204017 44 0.0 0.0 0.00 0.00 0.00 80 1015.6
20260508203017 45 0.0 0.0 0.00 0.00 0.00 80 1015.6
20260508202017 45 0.0 0.0 0.00 0.00 0.00 80 1015.6
20260508201017 45 0.0 0.0 0.00 0.00 0.00 79 1015.6
20260508200057 46 0.0 0.0 0.00 0.00 0.00 78 1015.6
20260508195017 47 0.0 0.0 0.00 0.00 0.00 78 1015.4
20260508194017 47 0.0 0.0 0.00 0.00 0.00 76 1015.4
20260508193017 47 0.0 0.0 0.00 0.00 0.00 76 1015.3
20260508192017 48 0.0 0.0 0.00 0.00 0.00 75 1015.4
20260508191017 48 0.0 0.0 0.00 0.00 0.00 72 1015.3
20260508190016 49 0.0 0.0 0.00 0.00 0.00 70 1015.3
20260508185017 51 0.0 0.0 0.00 0.00 0.00 63 1015.4
20260508184037 51 0.0 0.0 0.00 0.00 0.00 64 1015.4
20260508183016 51 0.0 0.0 0.00 0.00 0.00 63 1015.3
20260508182017 52 0.0 1.0 0.00 0.00 0.00 60 1015.3
20260508181016 53 0.0 0.0 0.00 0.00 0.00 58 1015.3
20260508180017 54 0.0 0.0 0.00 0.00 0.00 58 1015.4
20260508175016 54 0.0 0.0 0.00 0.00 0.00 55 1015.3
20260508174017 55 0.0 0.0 0.00 0.00 0.00 54 1015.3
20260508173017 56 0.0 0.0 0.00 0.00 0.00 54 1015.4
20260508172016 56 0.0 1.0 0.00 0.00 0.00 51 1015.4
20260508171017 57 90 1.0 2.0 0.00 0.00 0.00 51 1015.5
20260508170017 58 68 1.0 3.0 0.00 0.00 0.00 49 1015.4
20260508165016 59 293 1.0 3.0 0.00 0.00 0.00 40 1015.5
20260508164016 58 293 2.0 5.0 0.00 0.00 0.00 40 1015.5
20260508163016 58 113 1.0 2.0 0.00 0.00 0.00 46 1015.5
20260508162017 58 45 1.0 4.0 0.00 0.00 0.00 48 1015.6
20260508161036 59 0.0 2.0 0.00 0.00 0.00 47 1015.6
20260508160016 59 45 1.0 3.0 0.00 0.00 0.00 45 1015.6
20260508155016 60 0 1.0 3.0 0.00 0.00 0.00 41 1015.5
20260508154016 59 135 1.0 4.0 0.00 0.00 0.00 47 1015.5
20260508153036 60 90 2.0 5.0 0.00 0.00 0.00 44 1015.5
20260508152016 62 248 1.0 3.0 0.00 0.00 0.00 37 1015.6
20260508151036 62 248 1.0 4.0 0.00 0.00 0.00 35 1015.5